Radiation Dose at Monitoring Post of Fukushima Daini Nuclear Power Station
Date,Time,MP-1(microSv/h),MP-2(microSv/h),MP-3(microSv/h),MP-4(microSv/h),MP-5(microSv/h),MP-6(microSv/h),MP-7(microSv/h),Wind Direction,Wind Velocity(m/s),Rain
2022/05/20,00:00,0.150,0.142,0.222,0.215,0.218,0.120,0.078,southwest,2.7,No
2022/05/20,00:10,0.150,0.142,0.220,0.216,0.216,0.120,0.077,southwest,2.4,No
2022/05/20,00:20,0.150,0.141,0.222,0.216,0.218,0.122,0.078,west-southwest,3.6,No
2022/05/20,00:30,0.153,0.141,0.220,0.215,0.215,0.120,0.077,southwest,2.7,No
2022/05/20,00:40,0.150,0.141,0.221,0.216,0.218,0.121,0.077,south-southwest,2.8,No
2022/05/20,00:50,0.152,0.141,0.220,0.215,0.215,0.120,0.077,southwest,3.0,No
2022/05/20,01:00,0.151,0.141,0.222,0.216,0.217,0.122,0.077,west-southwest,2.7,No
2022/05/20,01:10,0.151,0.140,0.220,0.215,0.215,0.120,0.078,southwest,2.0,No
2022/05/20,01:20,0.150,0.141,0.223,0.217,0.216,0.121,0.077,west,2.4,No
2022/05/20,01:30,0.150,0.142,0.221,0.215,0.217,0.121,0.077,west-southwest,1.1,No
2022/05/20,01:40,0.152,0.141,0.223,0.216,0.215,0.121,0.077,-,CALM,No
2022/05/20,01:50,0.151,0.142,0.222,0.215,0.218,0.121,0.078,north-northwest,0.6,No
2022/05/20,02:00,0.152,0.142,0.223,0.216,0.215,0.121,0.078,-,CALM,No
2022/05/20,02:10,0.150,0.142,0.221,0.216,0.218,0.121,0.078,south,1.8,No
2022/05/20,02:20,0.152,0.141,0.223,0.216,0.216,0.121,0.077,south-southeast,2.2,No
2022/05/20,02:30,0.151,0.142,0.221,0.215,0.219,0.121,0.077,south-southeast,3.4,No
2022/05/20,02:40,0.152,0.142,0.222,0.217,0.216,0.120,0.077,south-southeast,2.7,No
2022/05/20,02:50,0.150,0.141,0.221,0.215,0.217,0.121,0.078,south,2.1,No
2022/05/20,03:00,0.152,0.141,0.222,0.217,0.217,0.121,0.078,south,2.8,No
2022/05/20,03:10,0.151,0.141,0.221,0.215,0.218,0.122,0.077,south,2.1,No
2022/05/20,03:20,0.152,0.142,0.222,0.216,0.215,0.120,0.077,south-southeast,1.4,No
2022/05/20,03:30,0.151,0.141,0.222,0.215,0.217,0.121,0.078,east-southeast,1.4,No
2022/05/20,03:40,0.151,0.142,0.222,0.217,0.216,0.121,0.077,south,0.6,No
2022/05/20,03:50,0.150,0.140,0.222,0.216,0.218,0.122,0.077,-,CALM,No
2022/05/20,04:00,0.151,0.142,0.221,0.216,0.215,0.121,0.078,south-southeast,1.1,No
2022/05/20,04:10,0.151,0.141,0.222,0.216,0.219,0.121,0.078,southwest,1.4,No
2022/05/20,04:20,0.152,0.142,0.222,0.216,0.216,0.122,0.078,-,CALM,No
2022/05/20,04:30,0.152,0.142,0.221,0.217,0.218,0.121,0.078,southeast,0.8,No
2022/05/20,04:40,0.152,0.141,0.223,0.216,0.216,0.121,0.078,north-northwest,0.8,No
2022/05/20,04:50,0.151,0.142,0.222,0.216,0.219,0.121,0.078,north,2.2,No
2022/05/20,05:00,0.152,0.142,0.223,0.216,0.216,0.121,0.078,north-northwest,2.9,No
2022/05/20,05:10,0.152,0.142,0.222,0.216,0.217,0.120,0.078,north,2.2,No
2022/05/20,05:20,0.151,0.143,0.223,0.216,0.216,0.121,0.078,north,0.7,No
2022/05/20,05:30,0.152,0.141,0.221,0.216,0.217,0.121,0.078,east-northeast,0.8,No
2022/05/20,05:40,0.152,0.143,0.222,0.216,0.216,0.121,0.078,east-southeast,1.2,No
2022/05/20,05:50,0.151,0.141,0.223,0.215,0.218,0.121,0.078,east-southeast,0.7,No
2022/05/20,06:00,0.151,0.142,0.221,0.218,0.216,0.121,0.078,south-southeast,1.4,No
2022/05/20,06:10,0.152,0.142,0.223,0.216,0.219,0.121,0.079,south,1.6,No
2022/05/20,06:20,0.151,0.141,0.221,0.217,0.216,0.121,0.078,south,1.6,No
2022/05/20,06:30,0.152,0.141,0.223,0.215,0.218,0.122,0.078,south,1.7,No
2022/05/20,06:40,0.151,0.141,0.221,0.216,0.216,0.121,0.078,south,2.3,No
2022/05/20,06:50,0.151,0.142,0.223,0.215,0.219,0.122,0.079,south,2.5,No
2022/05/20,07:00,0.153,0.142,0.220,0.216,0.217,0.122,0.078,south-southwest,3.1,No
2022/05/20,07:10,0.152,0.142,0.223,0.216,0.217,0.122,0.078,south-southwest,2.8,No
2022/05/20,07:20,0.153,0.143,0.222,0.216,0.218,0.122,0.079,south-southwest,1.8,No
2022/05/20,07:30,0.151,0.143,0.221,0.218,0.216,0.122,0.078,south,1.5,No
2022/05/20,07:40,0.152,0.142,0.223,0.215,0.218,0.121,0.079,south,1.7,No
2022/05/20,07:50,0.152,0.143,0.222,0.215,0.218,0.121,0.078,south,1.6,No
2022/05/20,08:00,0.150,0.141,0.221,0.217,0.215,0.122,0.078,south,1.3,No
2022/05/20,08:10,0.153,0.141,0.222,0.215,0.217,0.122,0.079,south-southeast,1.6,No
2022/05/20,08:20,0.151,0.142,0.221,0.214,0.219,0.121,0.078,south-southeast,2.1,No
2022/05/20,08:30,0.150,0.141,0.220,0.216,0.215,0.122,0.078,south-southeast,2.1,No
2022/05/20,08:40,0.152,0.141,0.220,0.217,0.216,0.121,0.078,south-southeast,2.4,No
2022/05/20,08:50,0.151,0.140,0.222,0.215,0.216,0.121,0.078,south-southeast,2.9,No
2022/05/20,09:00,0.150,0.142,0.224,0.214,0.218,0.122,0.078,south-southeast,2.9,No
2022/05/20,09:10,0.150,0.142,0.223,0.214,0.216,0.122,0.078,south-southeast,3.7,No
2022/05/20,09:20,0.153,0.142,0.222,0.213,0.215,0.122,0.078,south-southeast,3.8,No
2022/05/20,09:30,0.152,0.141,0.220,0.217,0.215,0.122,0.077,south-southeast,4.7,No
2022/05/20,09:40,0.150,0.140,0.220,0.217,0.215,0.122,0.078,south-southeast,4.8,No
2022/05/20,09:50,0.149,0.141,0.221,0.217,0.216,0.123,0.079,south-southeast,5.3,No
2022/05/20,10:00,0.151,0.143,0.220,0.216,0.217,0.121,0.078,south-southeast,5.3,No
2022/05/20,10:10,0.152,0.143,0.220,0.214,0.218,0.121,0.077,south-southeast,4.8,No
2022/05/20,10:20,0.153,0.141,0.220,0.214,0.217,0.121,0.077,south-southeast,5.6,No
2022/05/20,10:30,0.150,0.141,0.219,0.214,0.216,0.121,0.078,south-southeast,5.0,No
2022/05/20,10:40,0.150,0.141,0.219,0.214,0.216,0.122,0.077,south-southeast,6.9,No
2022/05/20,10:50,0.149,0.140,0.222,0.216,0.215,0.121,0.078,south-southeast,6.8,No
2022/05/20,11:00,0.151,0.142,0.221,0.218,0.215,0.121,0.077,south-southeast,7.0,No
2022/05/20,11:10,0.154,0.142,0.221,0.216,0.215,0.121,0.076,south-southeast,7.0,No
2022/05/20,11:20,0.151,0.142,0.221,0.215,0.214,0.121,0.078,south-southeast,7.5,No
2022/05/20,11:30,0.151,0.141,0.220,0.215,0.215,0.122,0.077,south-southeast,7.2,No
2022/05/20,11:40,0.150,0.140,0.221,0.215,0.215,0.123,0.078,south-southeast,7.1,No
2022/05/20,11:50,0.150,0.141,0.222,0.214,0.217,0.120,0.077,south-southeast,7.0,No
2022/05/20,12:00,0.150,0.141,0.222,0.215,0.219,0.121,0.077,south-southeast,7.4,No
2022/05/20,12:10,0.152,0.141,0.222,0.216,0.218,0.121,0.078,south-southeast,7.9,No
2022/05/20,12:20,0.152,0.142,0.223,0.218,0.217,0.122,0.077,south,8.1,No
2022/05/20,12:30,0.151,0.142,0.225,0.217,0.216,0.121,0.077,south-southeast,7.5,No
2022/05/20,12:40,0.150,0.142,0.225,0.215,0.216,0.120,0.077,south,7.3,No
2022/05/20,12:50,0.150,0.140,0.224,0.214,0.215,0.121,0.077,south,6.5,No
2022/05/20,13:00,0.152,0.141,0.222,0.213,0.215,0.120,0.078,south,7.3,No
2022/05/20,13:10,0.153,0.141,0.222,0.215,0.215,0.122,0.077,south,8.3,No
2022/05/20,13:20,0.151,0.142,0.221,0.218,0.216,0.121,0.077,south-southeast,8.9,No
2022/05/20,13:30,0.150,0.141,0.222,0.218,0.214,0.121,0.078,south,9.2,No
2022/05/20,13:40,0.150,0.141,0.220,0.217,0.215,0.121,0.078,south,8.1,No
2022/05/20,13:50,0.149,0.141,0.222,0.216,0.217,0.121,0.078,south,7.6,No
2022/05/20,14:00,0.150,0.142,0.221,0.215,0.220,0.121,0.077,south,7.9,No
2022/05/20,14:10,0.152,0.141,0.220,0.214,0.218,0.121,0.077,south-southeast,7.4,No
2022/05/20,14:20,0.152,0.141,0.221,0.216,0.217,0.121,0.077,south-southeast,8.2,No
2022/05/20,14:30,0.151,0.140,0.224,0.218,0.215,0.120,0.077,south,8.1,No
2022/05/20,14:40,0.151,0.142,0.224,0.216,0.215,0.121,0.077,south,7.6,No
2022/05/20,14:50,0.152,0.142,0.223,0.215,0.218,0.121,0.078,south,7.4,No
2022/05/20,15:00,0.153,0.141,0.222,0.216,0.218,0.121,0.077,south,6.9,No
2022/05/20,15:10,0.151,0.141,0.221,0.218,0.217,0.121,0.077,south,6.8,No
2022/05/20,15:20,0.151,0.143,0.222,0.218,0.216,0.122,0.077,south,7.7,No
2022/05/20,15:30,0.150,0.142,0.225,0.216,0.214,0.121,0.078,south,7.7,No
2022/05/20,15:40,0.153,0.141,0.223,0.216,0.216,0.120,0.078,south,8.1,No
2022/05/20,15:50,0.151,0.141,0.223,0.219,0.219,0.121,0.077,south,6.7,No
2022/05/20,16:00,0.151,0.141,0.222,0.218,0.217,0.122,0.078,south,6.4,No
2022/05/20,16:10,0.150,0.142,0.225,0.215,0.217,0.120,0.078,south,6.6,No
2022/05/20,16:20,0.152,0.141,0.224,0.218,0.214,0.121,0.077,south,6.3,No
2022/05/20,16:30,0.152,0.140,0.223,0.218,0.217,0.120,0.078,south,5.6,No
2022/05/20,16:40,0.150,0.143,0.224,0.216,0.218,0.121,0.078,south,5.7,No
2022/05/20,16:50,0.151,0.142,0.224,0.218,0.215,0.121,0.077,south,5.5,No
2022/05/20,17:00,0.153,0.141,0.222,0.219,0.217,0.120,0.078,south,7.0,No
2022/05/20,17:10,0.151,0.142,0.222,0.217,0.219,0.121,0.078,south,6.8,No
2022/05/20,17:20,0.151,0.142,0.224,0.218,0.216,0.121,0.077,south,7.3,No
2022/05/20,17:30,0.152,0.142,0.223,0.218,0.219,0.120,0.078,south,7.3,No
2022/05/20,17:40,0.150,0.142,0.223,0.216,0.219,0.122,0.077,south,6.8,No
2022/05/20,17:50,0.153,0.141,0.223,0.218,0.216,0.120,0.078,south,6.1,No
2022/05/20,18:00,0.151,0.143,0.222,0.217,0.219,0.121,0.078,south,4.0,Yes
2022/05/20,18:10,0.151,0.142,0.225,0.216,0.218,0.122,0.078,south-southwest,5.1,Yes
2022/05/20,18:20,0.154,0.143,0.223,0.218,0.216,0.122,0.079,south-southwest,3.0,No
2022/05/20,18:30,0.152,0.142,0.224,0.216,0.219,0.123,0.078,southwest,2.6,No
2022/05/20,18:40,0.151,0.142,0.223,0.217,0.216,0.122,0.078,south-southwest,2.0,No
2022/05/20,18:50,0.153,0.143,0.224,0.217,0.217,0.121,0.079,south-southwest,2.1,No
2022/05/20,19:00,0.151,0.142,0.225,0.217,0.217,0.123,0.078,south,3.6,No
2022/05/20,19:10,0.153,0.144,0.223,0.219,0.217,0.121,0.079,south,4.4,No
2022/05/20,19:20,0.152,0.141,0.225,0.217,0.219,0.122,0.078,south-southwest,3.1,No
2022/05/20,19:30,0.152,0.143,0.224,0.219,0.217,0.121,0.078,south-southwest,3.0,No
2022/05/20,19:40,0.153,0.142,0.225,0.217,0.220,0.122,0.078,south-southwest,2.8,No
2022/05/20,19:50,0.150,0.143,0.225,0.219,0.217,0.123,0.078,south,3.2,No
2022/05/20,20:00,0.153,0.143,0.223,0.217,0.216,0.121,0.078,south-southwest,3.3,Yes
2022/05/20,20:10,0.152,0.143,0.225,0.217,0.220,0.123,0.080,southwest,3.2,Yes
2022/05/20,20:20,0.153,0.142,0.225,0.220,0.217,0.122,0.079,west-southwest,5.4,Yes
2022/05/20,20:30,0.154,0.145,0.227,0.218,0.220,0.124,0.080,west-southwest,7.0,Yes
2022/05/20,20:40,0.154,0.145,0.228,0.222,0.220,0.125,0.081,west-southwest,9.0,Yes
2022/05/20,20:50,0.159,0.148,0.231,0.223,0.222,0.129,0.084,west-southwest,9.5,Yes
2022/05/20,21:00,0.161,0.151,0.233,0.227,0.225,0.132,0.089,west-southwest,7.4,Yes
2022/05/20,21:10,0.164,0.155,0.236,0.227,0.227,0.134,0.091,west-southwest,7.0,Yes
2022/05/20,21:20,0.165,0.155,0.236,0.229,0.229,0.137,0.093,southwest,6.0,Yes
2022/05/20,21:30,0.167,0.158,0.237,0.230,0.230,0.139,0.094,west,9.5,Yes
2022/05/20,21:40,0.167,0.157,0.238,0.231,0.230,0.140,0.096,west-southwest,11.2,Yes
2022/05/20,21:50,0.166,0.156,0.237,0.232,0.231,0.139,0.095,west-southwest,9.2,Yes
2022/05/20,22:00,0.165,0.155,0.238,0.230,0.230,0.139,0.094,west,7.1,Yes
2022/05/20,22:10,0.166,0.155,0.236,0.230,0.230,0.139,0.094,south-southwest,6.4,Yes
2022/05/20,22:20,0.164,0.156,0.237,0.228,0.229,0.137,0.092,south,4.9,Yes
2022/05/20,22:30,0.165,0.154,0.238,0.230,0.230,0.137,0.093,west-southwest,5.5,Yes
2022/05/20,22:40,0.164,0.156,0.236,0.228,0.228,0.135,0.091,west-southwest,3.5,Yes
2022/05/20,22:50,0.165,0.153,0.236,0.227,0.228,0.135,0.090,west-southwest,2.6,Yes
2022/05/20,23:00,0.161,0.153,0.234,0.225,0.224,0.132,0.087,west-southwest,1.7,No
2022/05/20,23:10,0.160,0.149,0.230,0.223,0.224,0.131,0.086,west-southwest,3.5,No
2022/05/20,23:20,0.158,0.148,0.228,0.220,0.221,0.128,0.084,west-southwest,3.7,No
2022/05/20,23:30,0.156,0.147,0.227,0.219,0.222,0.127,0.083,west,3.0,No
2022/05/20,23:40,0.156,0.145,0.224,0.219,0.218,0.125,0.082,west-southwest,2.2,No
2022/05/20,23:50,0.155,0.145,0.224,0.217,0.220,0.124,0.080,southwest,1.7,No
